Temp_Advection
nan nan nan nan nan nan nan nan nan nan nan nan nan nan nan nan nan nan nan nan nan nan nan nan nan nan nan nan nan nan nan nan nan nan nan nan nan nan nan nan nan nan nan nan nan nan nan nan nan nan nan nan nan nan
nan 0 0 0 0 0 0 0 0 0 -0 -0 0 0 0 -0 -0 -0 -0 0 0 0 -0 -0 -0 0 0 0 0 -0 -0 0 0 0 -0 -0 0 -0 0 -0 -0 -0 -0 -0 -0 -0 -0 -1 -0 -0 -0 -0 -0 nan
nan 0 0 0 0 0 0 0 0 -0 0 0 0 0 0 0 -0 -0 -0 -0 0 0 -1 -0 -0 0 0 0 0 0 -0 -0 0 0 0 0 0 -0 -0 -0 -0 -0 -0 -0 -1 0 -0 -0 -0 -0 0 0 -0 nan
nan 0 0 0 0 0 0 0 0 0 0 0 0 1 0 1 0 -0 -0 -0 0 0 -0 -0 0 0 0 0 0 0 0 0 -0 -0 0 0 -0 -0 0 -0 -0 -0 -0 -0 -0 -0 -1 0 0 0 -0 -0 -0 nan
nan 0 0 0 0 0 0 0 0 0 0 0 0 0 0 0 0 0 0 0 0 0 -0 -1 -0 -0 0 -0 0 0 0 0 0 -0 -0 -0 -0 -0 -0 -1 0 -0 0 -0 -0 -1 0 -1 -2 -0 -0 -0 -0 nan
nan 0 0 0 0 0 0 -0 0 0 0 0 0 0 0 0 0 0 0 0 0 0 0 -0 -0 -0 -0 -0 0 0 -0 0 -0 -0 -0 -0 -0 0 -0 0 -0 -0 0 0 -0 -1 -1 -1 0 -0 -0 -0 -0 nan
nan 0 0 0 0 0 -0 -0 -0 0 -0 0 0 0 -0 0 0 0 0 0 0 -0 0 -0 -1 -0 -0 -0 -0 -0 0 -0 -0 -0 -0 -0 -0 -0 -0 -0 -1 -0 -0 0 0 0 -0 -0 -0 -0 -0 -0 -0 nan
nan 0 0 0 0 0 -0 -0 -0 0 -0 0 0 0 -0 0 0 0 0 -0 0 0 0 -0 -1 -1 -0 -0 -0 -0 0 0 -0 -0 -0 -0 -0 -1 -0 -0 -1 -0 -1 -0 -0 -0 -0 -0 -0 -0 -0 -0 -0 nan
nan 0 0 0 0 0 -0 -0 -0 -0 -0 0 0 0 0 0 -0 0 -0 0 0 -0 -0 -0 -0 -1 -1 -0 -0 -0 -0 -0 -0 -0 0 -0 0 -0 -0 -0 -0 -0 -0 -1 -0 -0 -0 -0 -0 -0 -0 -0 -0 nan
nan 0 0 0 0 0 -0 -0 -0 -0 -0 0 0 -0 0 -0 0 0 -0 -0 -0 -0 -0 -0 0 -0 -1 -0 -0 -0 -0 -0 -0 -0 -0 -0 -0 1 0 0 0 0 0 0 0 -0 -0 -0 0 0 0 0 0 nan
nan 0 0 0 0 0 -0 -0 -0 -0 0 0 -0 -0 -0 -0 0 0 -0 -0 -1 -0 -0 -0 -0 -0 -0 -0 -0 -0 0 -0 0 -0 -0 -0 -0 -0 -0 0 0 0 0 0 0 0 0 0 0 0 0 0 0 nan
nan 0 0 0 0 -0 -0 -0 -0 -0 0 0 -0 -0 -0 -0 -0 -2 -0 -1 -0 -0 -0 -0 -0 -0 -0 -0 -0 -0 -0 -0 -0 -0 -0 -0 -0 -0 -0 0 0 0 0 0 0 0 0 0 0 0 0 0 0 nan
nan 0 0 0 -0 -0 -0 -0 -0 -0 -0 -0 -0 -0 -1 -1 -2 -0 0 -0 -0 -0 -0 -0 -0 -0 -0 -0 0 -0 0 -0 -0 -0 -0 0 0 -0 0 0 0 0 0 0 0 0 0 0 0 -0 -0 0 0 nan
nan 1 0 0 -0 -0 -0 -0 -0 -0 -0 -0 -1 -1 -1 -0 -0 -0 -0 -0 -0 0 -0 -0 -0 -0 -0 -0 -0 0 -0 -0 -0 0 0 0 0 -0 0 0 0 -0 0 0 0 0 0 0 -0 0 0 0 0 nan
nan 0 0 -0 0 -0 0 -0 -0 -0 -0 -0 -1 -0 0 -0 -0 0 0 0 -0 -0 -0 -0 -0 -0 -0 -0 -0 -0 -0 0 -0 0 -0 -0 -0 0 0 0 -0 -0 0 0 0 0 0 0 0 0 0 0 0 nan
nan -0 -0 -0 0 0 0 -0 -0 -0 -0 -0 -1 -0 -0 0 0 -0 0 0 -0 -0 -0 0 0 -0 -0 -0 -0 0 0 0 0 -0 0 -0 -0 0 0 -0 -0 0 0 0 0 0 0 0 -0 0 0 0 0 nan
nan -0 -0 0 0 0 0 -0 -0 -0 -0 -0 -0 -0 -0 0 0 0 -0 -0 -0 -0 -0 0 -0 -0 -0 -0 0 -0 -0 -0 -0 0 0 0 0 0 0 -0 -0 0 0 0 0 0 0 0 0 0 -0 0 0 nan
nan -0 -0 -0 -0 0 -0 -0 -0 -0 -0 0 -0 -0 -0 -0 0 0 0 -0 -0 -0 0 -0 -0 -0 0 -0 0 -0 0 0 0 0 0 0 0 0 0 -0 -0 -0 0 0 0 0 0 0 -0 -0 0 0 0 nan
nan -0 -0 0 0 -0 -0 -0 -0 -0 -0 0 0 -0 -0 -0 -0 -0 -0 -0 -0 -0 -0 0 -0 -0 -0 -0 0 -0 -0 -0 -0 0 0 0 0 0 0 -0 -0 0 0 0 0 0 -0 -0 0 0 0 0 0 nan
nan 0 0 0 0 -0 -0 -0 -0 -0 -0 -0 0 0 0 -0 -0 -0 0 -0 0 0 0 -0 -0 -0 -0 -0 -0 -0 -0 -0 -0 -1 -0 0 0 0 0 -0 -0 -0 -0 0 -0 -0 0 0 0 0 0 0 0 nan
nan 0 0 0 0 -0 -0 -0 -0 -0 -0 0 0 0 0 0 0 0 0 0 0 0 0 -0 -0 -0 0 0 0 0 0 0 -0 -0 -0 -0 -0 0 0 -0 -0 -0 -0 -0 -0 -0 0 0 0 0 0 0 -0 nan
nan -0 0 0 -0 -0 -0 -0 -0 -0 -0 -0 0 0 0 0 0 0 0 0 0 0 0 -0 -0 0 0 0 0 0 0 0 -0 0 0 -0 -0 -0 0 0 0 0 -0 -0 -0 0 0 -0 0 0 0 -0 0 nan
nan -0 -0 -0 -0 -0 -0 0 -0 -0 -0 0 0 -0 -0 0 0 0 0 0 0 0 -0 -0 -0 -0 0 0 0 0 0 0 0 0 0 0 -0 -0 -0 -0 0 0 0 -0 -0 0 -0 -0 0 0 0 0 0 nan
nan -0 -0 -0 -1 -0 0 -0 -0 -0 -0 -1 -0 -0 -0 -0 0 0 0 -0 -0 -0 -0 -0 -0 -0 -0 0 0 0 0 0 0 0 0 0 -0 -0 -0 -0 0 0 0 -0 -0 0 0 0 0 -0 0 0 0 nan
nan -1 -0 -0 -0 -0 -1 -0 -0 -0 0 0 0 -0 -0 0 0 0 -0 -0 -0 -0 -0 -0 -0 -0 -0 -0 -0 -0 -0 -0 0 0 -0 0 0 0 -0 0 0 0 -0 -0 0 0 0 0 -0 0 0 0 0 nan
nan -0 -0 -0 -0 -0 -0 -0 0 0 0 -0 -1 -0 0 -0 -0 -0 -0 -0 -0 -0 -0 -0 -0 -0 -0 -0 -0 -0 -0 -0 -0 0 0 -0 -0 0 0 0 -0 -0 -0 -0 0 0 0 0 0 0 0 0 0 nan
nan -0 0 0 -0 -0 -0 -0 -0 -0 -0 -0 -0 -0 0 0 -0 -1 -0 -0 -0 -0 -0 -0 -0 -0 -0 -0 0 0 -0 -0 -0 -0 0 -0 -0 -0 -0 -0 -0 0 -0 -0 0 0 0 0 0 0 -0 -0 -0 nan
nan -0 -0 0 0 0 -0 -0 -0 -0 -1 -0 -0 0 -1 -1 -1 -0 0 -0 -0 0 -0 -0 -0 -0 -0 0 -0 -0 0 0 -0 -0 -0 -0 -0 -0 -0 -0 -0 -0 0 0 0 0 0 -0 0 -0 -0 -0 -0 nan
nan 0 -0 -0 0 0 -0 -0 -0 -0 -0 0 -0 -0 -1 -0 -0 0 0 -0 -0 -0 -0 -0 -0 -0 -0 -0 -0 -0 -0 -0 -0 -0 -0 -0 -0 -0 -0 -0 -0 -0 -0 -0 -0 0 0 0 0 -0 -0 -0 -0 nan
nan 0 0 0 0 -0 -0 0 0 0 0 -0 -0 -0 -0 -0 -0 0 0 0 0 0 0 0 0 -0 -0 -0 -0 -0 -0 -0 -0 0 0 0 0 0 0 0 0 0 0 -0 -0 -0 -0 -0 -0 -0 -0 -0 -0 nan
nan 0 0 0 -0 -0 0 0 0 0 0 -0 0 0 -1 -1 -1 -0 0 0 0 1 0 -0 0 0 0 0 0 0 0 0 0 0 0 0 0 0 0 0 0 0 0 -0 -0 -0 -0 -0 -0 -0 -0 -0 -0 nan
nan 0 0 0 -0 0 0 0 0 0 0 -0 -0 0 -0 -0 -0 -0 -0 0 0 0 0 0 0 0 0 0 0 0 0 0 0 0 0 0 0 0 0 0 0 0 0 0 -0 -0 -0 -0 0 0 -0 -0 -0 nan
nan nan nan nan nan nan nan nan nan nan nan nan nan nan nan nan nan nan nan nan nan nan nan nan nan nan nan nan nan nan nan nan nan nan nan nan nan nan nan nan nan nan nan nan nan nan nan nan nan nan nan nan nan nan
Wind_Speed
17 17 13 10 8 7 8 8 10 10 11 12 14 13 11 12 11 14 14 6 5 6 17 8 4 9 10 5 1 6 6 5 4 4 1 2 1 3 3 4 5 4 6 4 5 5 5 29 9 8 8 20 26 29
19 16 13 9 7 6 7 8 9 11 12 13 14 13 12 12 11 14 11 8 9 11 11 15 14 7 9 8 9 3 4 2 4 1 1 2 2 1 2 3 4 4 1 3 3 3 7 24 4 17 21 22 24 28
20 16 12 9 6 5 6 7 10 11 12 13 15 13 13 13 11 14 10 7 8 7 11 5 2 4 4 3 5 3 3 3 6 10 5 2 3 2 0 2 3 6 10 2 7 1 18 21 14 30 31 27 27 25
20 16 12 9 6 5 6 8 9 11 11 14 15 14 14 14 11 9 7 7 5 4 3 2 3 2 5 4 4 7 12 15 13 14 6 2 2 0 1 4 3 2 8 6 5 6 22 8 30 33 34 26 24 24
20 16 13 9 6 6 6 7 10 11 12 14 16 16 16 14 7 7 5 3 1 4 3 8 10 4 6 8 5 6 12 11 6 4 2 2 4 4 4 3 2 5 3 2 4 19 15 24 33 28 26 24 22 20
20 16 12 8 7 7 7 8 10 11 13 14 15 16 14 8 4 3 2 4 2 7 3 3 3 2 4 10 7 3 12 12 5 5 3 4 6 5 2 2 5 17 19 16 9 23 26 28 23 20 20 19 16 15
19 15 11 8 7 7 8 8 10 11 13 14 16 14 9 3 3 1 2 2 5 6 2 5 6 2 8 4 2 3 2 6 4 3 5 3 6 5 2 2 17 26 23 20 13 19 15 13 15 16 14 12 10 10
18 14 11 9 8 8 8 9 10 12 13 14 13 9 2 2 3 1 2 4 5 2 3 1 4 4 9 4 3 3 3 1 5 3 2 5 5 5 1 11 23 23 21 9 16 8 9 9 9 10 8 8 12 15
16 13 10 9 8 9 9 9 9 11 12 13 8 2 3 2 2 1 6 1 2 2 1 3 2 3 10 4 3 3 0 2 2 3 2 4 3 3 7 20 22 19 16 18 10 5 7 10 11 11 13 15 17 18
14 12 10 7 8 9 8 7 8 10 11 8 4 2 2 2 4 2 1 0 1 2 3 3 4 2 8 6 4 6 1 2 2 2 4 3 1 10 16 15 14 13 11 10 8 11 11 14 16 17 19 18 19 20
13 10 8 7 8 7 6 6 7 9 8 3 0 2 1 2 1 1 2 4 6 4 6 5 4 2 4 2 2 3 1 1 2 2 3 2 3 10 16 15 12 9 8 8 10 11 12 13 17 19 20 20 20 21
12 9 8 8 8 5 4 5 6 7 5 2 2 4 3 2 2 5 1 4 3 1 7 6 7 6 6 3 2 4 0 3 1 1 3 2 2 14 13 14 13 12 12 12 13 15 15 18 20 21 22 22 22 22
10 9 9 8 6 3 3 4 6 7 5 4 3 3 4 5 8 4 3 4 3 5 7 10 6 4 4 4 3 2 3 1 1 3 1 2 7 10 11 11 12 13 14 15 16 17 19 20 20 21 22 20 20 22
9 10 10 7 3 1 2 3 4 4 2 3 3 5 3 4 1 4 4 3 5 6 12 13 5 3 4 2 2 2 1 2 3 2 1 1 4 7 10 10 12 14 15 15 16 17 19 20 20 20 20 18 18 21
10 12 8 4 3 2 0 1 2 2 3 4 3 2 1 1 3 2 4 5 6 7 9 7 6 4 3 2 1 2 3 2 1 2 2 3 3 6 10 11 10 11 12 13 14 15 16 16 17 17 17 16 17 18
12 10 8 6 4 2 2 1 3 4 4 3 4 4 1 1 2 2 4 6 4 8 11 4 2 3 2 1 3 0 2 1 2 2 8 5 5 7 9 9 9 8 10 10 12 14 14 15 16 16 15 16 16 16
9 7 8 6 4 4 3 2 3 4 4 4 4 6 3 1 2 2 5 5 7 7 2 1 2 2 3 2 1 2 1 2 12 11 7 5 6 7 7 7 8 9 9 10 10 11 13 13 13 14 17 17 15 15
9 8 7 7 5 6 5 3 3 3 4 5 4 5 3 3 3 3 5 4 3 2 4 0 2 2 1 1 1 2 6 14 12 10 9 8 7 7 7 9 9 9 10 10 10 11 11 11 13 15 14 13 14 14
8 8 8 7 7 4 3 3 2 4 3 5 8 5 3 3 4 3 2 1 2 2 3 1 3 1 1 1 1 11 14 12 13 11 9 8 7 7 8 8 9 10 10 11 10 10 11 11 12 13 12 10 12 13
10 10 8 8 7 3 3 4 3 3 4 5 5 4 1 1 3 2 2 1 1 2 1 1 3 2 1 1 4 10 10 11 13 13 10 9 7 7 8 9 9 10 9 10 11 9 9 9 9 9 10 10 10 11
11 10 10 9 5 3 4 4 3 4 6 3 6 3 2 2 1 2 1 2 2 2 2 2 3 4 3 4 8 8 10 12 11 7 11 11 9 7 8 8 9 9 9 10 9 10 9 11 10 8 6 7 8 8
13 11 10 5 3 4 4 4 4 5 3 4 5 4 1 0 1 1 2 2 2 3 3 4 4 7 7 7 9 10 9 9 8 8 10 9 10 9 9 8 7 8 8 8 8 9 10 9 8 6 5 5 5 6
13 8 4 3 3 3 3 3 2 3 3 2 2 2 1 1 2 3 3 3 3 4 4 5 6 7 8 9 9 9 8 8 11 11 10 10 10 9 9 9 8 7 7 8 8 8 8 9 8 7 6 5 5 4
8 3 3 3 4 3 3 2 3 2 2 3 3 2 2 2 2 3 2 3 3 5 6 7 8 10 10 10 10 10 10 10 11 12 10 10 10 10 9 8 7 6 6 7 7 7 7 7 7 6 6 5 4 4
3 4 3 4 3 2 4 4 4 3 0 1 1 3 1 2 0 1 2 4 9 9 9 10 10 9 11 12 11 11 11 11 9 10 11 10 7 8 8 7 6 5 4 5 5 6 5 4 4 4 4 4 3 4
5 2 2 2 2 3 3 2 2 4 2 1 4 1 1 1 1 4 3 7 13 13 13 13 12 11 11 11 11 11 11 10 9 8 8 9 8 6 4 4 3 4 3 3 4 4 3 3 2 2 2 3 3 3
3 1 3 4 4 4 3 2 2 2 2 3 2 1 2 1 4 3 3 9 11 11 11 11 11 11 11 12 12 11 10 10 10 9 8 7 6 5 4 3 2 3 3 3 4 4 3 3 4 4 3 1 1 1
4 4 4 5 3 3 3 3 4 5 4 4 3 1 5 6 3 1 3 8 11 11 12 11 11 11 12 13 11 10 11 12 11 10 9 7 6 5 4 3 2 2 3 3 4 5 4 4 3 3 3 3 2 2
3 6 5 3 3 4 5 6 4 4 4 5 4 3 3 3 2 1 1 7 12 13 14 13 13 13 13 12 12 13 13 13 12 11 9 8 7 5 4 3 2 1 2 2 2 3 3 4 4 5 5 6 6 6
3 7 3 3 4 4 3 4 3 4 5 6 4 5 6 9 8 8 8 8 13 15 14 13 13 14 13 12 11 11 12 12 12 11 9 7 6 5 4 4 3 2 2 1 2 2 3 4 5 5 6 6 7 8
4 4 2 3 2 3 3 4 6 7 9 8 11 13 11 8 9 11 13 13 14 19 20 20 18 16 15 14 13 13 12 12 12 11 9 8 7 6 5 4 4 3 3 3 3 4 4 4 5 6 6 6 7 7
4 3 2 0 1 2 3 2 3 3 3 4 4 5 3 4 5 4 6 12 17 20 21 20 18 15 13 13 13 13 12 13 12 11 9 9 8 7 6 5 4 5 5 5 5 5 6 6 6 7 7 7 8 8
1 2 1 1 1 1 1 2 2 3 4 3 3 3 5 4 5 4 5 6 10 12 16 17 16 16 15 14 13 13 13 12 11 11 11 11 10 9 8 7 6 6 6 6 7 7 8 8 8 8 9 10 10 11
Wind_Direction
204 206 210 222 241 267 286 290 299 308 311 319 328 335 334 324 322 313 320 299 268 259 284 271 278 291 309 269 246 311 352 350 359 31 52 282 50 280 360 315 350 28 334 347 341 354 358 6 1 32 305 309 319 329
205 204 210 220 238 266 285 295 300 307 314 319 326 330 323 321 320 305 311 298 291 253 273 275 285 270 276 277 279 279 257 245 263 265 228 230 294 14 146 301 25 32 344 293 28 297 346 343 56 346 336 321 325 323
199 203 207 215 232 258 288 296 299 308 315 318 324 322 319 316 311 297 297 298 304 280 292 273 227 256 285 279 305 281 279 302 261 317 317 240 233 135 153 271 62 334 8 8 333 104 334 318 337 343 340 330 331 336
197 200 203 212 228 254 281 300 307 313 317 318 320 320 319 318 306 297 294 299 297 287 282 279 231 221 269 326 336 331 320 318 287 277 231 221 197 166 206 111 98 304 322 320 275 303 331 112 325 327 332 337 340 339
194 198 205 212 227 255 280 304 316 315 318 319 321 323 323 321 300 284 289 282 110 353 287 296 303 305 216 313 295 356 348 346 332 343 312 36 19 3 77 80 47 342 318 325 279 306 297 288 314 338 334 337 342 344
193 201 205 216 232 254 281 306 316 316 322 323 323 325 326 319 267 270 234 223 256 321 297 320 301 290 277 313 209 229 26 12 33 48 8 22 340 316 70 97 189 340 323 308 265 298 304 310 323 331 339 342 351 1
195 201 208 220 235 258 283 302 314 319 324 323 324 326 327 292 215 179 223 230 306 314 280 306 316 281 329 327 269 259 298 20 52 63 25 18 11 50 65 18 321 333 331 328 330 322 312 331 336 346 358 10 21 35
197 204 215 229 241 261 286 301 314 323 324 324 325 328 11 163 183 192 268 287 299 215 251 64 285 335 356 326 340 302 188 153 52 74 53 19 22 34 61 314 334 340 339 336 342 339 327 345 359 15 25 44 57 64
199 209 226 238 246 259 287 299 315 323 326 325 325 298 218 213 165 228 308 285 69 55 33 73 105 276 340 334 304 291 36 59 68 72 47 75 337 27 297 326 338 347 344 328 337 14 40 50 53 57 64 67 73 76
205 216 231 243 246 268 290 303 319 328 325 323 330 153 180 123 301 275 142 280 77 38 36 58 335 280 331 334 320 343 17 107 75 269 109 80 163 343 349 359 0 1 360 14 43 41 54 63 68 73 74 81 85 87
211 220 229 240 257 276 286 309 326 331 326 334 73 122 87 22 138 105 84 45 355 24 8 351 3 300 336 338 296 313 298 45 67 272 103 27 341 348 1 16 24 33 41 63 83 89 91 91 87 86 84 85 89 91
214 225 232 233 252 277 286 318 331 334 329 329 103 111 93 68 71 77 310 341 51 292 345 338 320 297 296 300 285 317 30 38 176 58 73 15 294 354 12 27 36 51 66 78 89 93 97 96 91 88 86 84 86 89
220 216 208 219 253 259 305 325 340 348 6 94 94 88 30 12 43 75 327 317 340 351 11 341 326 301 291 262 275 15 57 223 2 51 102 210 345 4 27 43 53 65 74 83 86 91 91 90 88 84 81 79 82 82
204 197 185 217 209 196 303 336 354 1 67 77 53 29 74 345 237 190 192 214 286 293 325 324 287 268 287 294 19 51 246 62 54 70 191 251 10 27 42 48 56 56 64 69 73 78 80 81 79 79 78 77 79 78
177 165 190 198 168 177 261 6 17 56 79 79 59 77 72 148 251 262 265 281 317 313 316 309 292 253 281 346 43 350 25 59 59 193 134 135 80 66 57 53 55 58 64 71 76 78 82 85 85 84 82 82 80 80
155 176 183 169 166 148 138 109 71 92 76 75 74 86 118 158 227 259 285 292 300 314 315 247 283 3 307 346 43 47 126 173 196 121 135 137 103 84 73 64 61 69 73 77 82 84 87 86 84 83 87 84 81 82
166 171 170 163 148 148 147 115 88 77 85 95 112 102 100 217 263 294 298 296 317 312 277 245 59 229 317 39 37 345 76 98 133 136 140 133 108 90 85 85 80 80 87 89 88 90 86 87 91 92 84 80 82 82
166 166 160 158 155 151 107 86 92 92 89 117 128 133 115 46 344 304 298 297 311 303 317 330 323 44 149 183 193 141 112 135 142 143 139 130 121 116 111 95 92 92 90 90 94 96 96 97 92 82 80 81 85 83
164 155 156 160 163 136 109 91 88 102 103 128 148 141 100 49 356 346 13 350 287 295 288 284 74 180 249 341 131 154 154 153 152 146 136 130 124 115 108 104 100 100 100 95 94 97 96 92 89 87 82 81 82 81
143 145 147 152 152 118 105 89 101 101 133 152 161 161 167 90 23 27 1 356 250 252 231 118 205 214 253 249 171 176 172 172 162 144 137 134 127 122 112 103 100 99 99 93 90 90 100 101 94 88 85 81 81 80
136 135 139 137 118 93 92 113 89 99 131 141 151 172 202 223 354 343 308 305 255 232 237 218 227 194 142 143 162 173 169 176 171 164 165 148 140 132 116 106 100 100 99 97 95 92 92 86 83 82 82 80 73 70
138 143 137 133 101 91 85 72 108 117 111 123 157 194 182 296 255 249 248 256 238 226 219 207 196 179 172 167 158 157 167 178 189 172 166 153 143 138 130 121 116 109 103 97 90 81 76 77 77 72 70 72 61 52
131 135 105 94 98 75 102 113 111 103 101 144 131 53 311 246 219 207 255 248 256 229 204 197 194 185 182 169 161 168 168 172 165 159 154 147 143 138 132 124 116 109 106 100 91 83 75 71 69 66 60 56 56 54
128 101 82 73 59 111 118 86 79 93 101 58 67 310 264 219 217 227 242 236 222 182 179 177 172 167 169 166 165 164 162 163 162 152 147 147 142 134 130 125 118 110 103 97 86 78 70 65 62 56 49 41 52 59
114 33 68 62 72 105 50 27 21 64 183 203 108 298 220 236 180 234 227 207 185 183 174 168 165 173 176 170 167 170 168 164 167 165 156 153 157 148 138 128 120 117 110 95 87 74 68 63 63 60 49 45 54 61
79 33 57 135 84 97 164 107 195 206 164 247 230 263 247 125 67 244 235 198 192 190 185 181 181 182 181 176 173 170 171 174 171 172 170 160 153 145 144 142 135 126 120 99 85 75 68 64 48 55 67 46 45 38
97 195 114 110 114 130 103 129 156 180 168 202 232 123 73 103 252 248 211 193 194 194 189 188 190 190 188 182 177 175 179 178 173 167 173 172 165 159 157 151 143 120 106 99 90 70 53 42 33 27 26 32 15 26
102 145 144 160 136 172 150 177 177 199 213 182 170 216 180 196 237 251 221 197 192 189 192 192 188 186 187 179 176 186 186 182 181 180 183 186 183 181 179 166 149 134 117 95 83 74 65 59 54 44 26 22 22 359
112 140 147 127 162 208 225 208 211 187 190 194 187 230 242 241 241 303 272 202 197 196 197 198 195 193 188 185 192 195 195 198 196 194 195 197 197 193 185 178 171 138 97 89 65 45 38 47 43 33 26 20 18 16
130 162 157 179 180 225 190 198 201 211 220 230 252 266 271 272 274 270 256 235 219 211 204 202 203 201 199 198 198 198 200 199 199 200 203 208 209 208 200 193 189 198 218 274 310 320 337 350 353 354 0 5 7 6
154 182 203 200 226 202 213 233 248 257 260 258 252 253 261 281 284 270 245 232 218 208 207 207 206 205 206 208 208 204 202 200 199 201 206 210 212 215 215 213 221 235 244 260 281 299 311 314 316 321 325 329 332 334
178 204 209 218 233 244 269 260 259 256 249 243 247 234 252 256 259 252 242 227 221 216 210 208 210 211 211 208 207 209 212 211 210 211 215 217 222 224 223 227 244 252 258 270 281 290 297 303 306 309 310 312 310 308
162 201 231 295 275 242 268 286 268 280 253 256 252 246 232 251 259 251 256 234 215 207 206 207 206 209 212 213 214 214 215 216 215 213 215 219 224 230 238 246 254 250 259 269 277 286 292 296 301 304 305 305 305 307
Height
1522 1524 1527 1529 1530 1531 1532 1532 1531 1531 1528 1526 1525 1522 1520 1518 1516 1514 1512 1510 1511 1508 1502 1499 1499 1498 1497 1495 1496 1488 1488 1484 1482 1485 1483 1489 1489 1484 1481 1469 1464 1473 1465 1456 1448 1446 1446 1444 1434 1438 1449 1437 1427 1419
1519 1522 1525 1526 1527 1528 1529 1529 1529 1528 1527 1524 1521 1520 1518 1516 1514 1510 1508 1507 1506 1505 1500 1496 1494 1495 1495 1494 1494 1490 1489 1487 1484 1484 1484 1481 1482 1485 1491 1487 1471 1480 1480 1473 1467 1460 1457 1455 1453 1450 1446 1439 1431 1425
1516 1520 1522 1523 1524 1525 1525 1526 1525 1524 1522 1521 1519 1516 1514 1512 1509 1507 1505 1504 1504 1502 1496 1493 1491 1493 1492 1492 1491 1490 1487 1486 1483 1481 1481 1478 1483 1478 1487 1486 1480 1481 1478 1477 1471 1460 1457 1451 1450 1448 1443 1437 1431 1426
1514 1517 1519 1520 1521 1521 1521 1521 1521 1520 1517 1517 1515 1512 1509 1507 1505 1503 1502 1501 1501 1500 1500 1493 1492 1492 1492 1491 1490 1487 1485 1481 1478 1477 1477 1476 1478 1474 1477 1481 1489 1490 1484 1481 1472 1463 1456 1451 1452 1446 1441 1437 1431 1425
1511 1514 1516 1517 1518 1518 1518 1517 1518 1516 1514 1513 1511 1509 1505 1503 1502 1502 1500 1499 1499 1502 1498 1492 1490 1490 1489 1489 1488 1486 1483 1479 1476 1475 1474 1475 1476 1476 1476 1482 1494 1491 1488 1487 1476 1469 1468 1457 1450 1444 1440 1434 1429 1425
1508 1511 1512 1514 1515 1515 1515 1514 1514 1513 1510 1509 1508 1505 1502 1500 1500 1499 1500 1500 1498 1498 1497 1494 1489 1488 1488 1486 1485 1484 1482 1479 1479 1479 1481 1480 1480 1480 1484 1488 1488 1487 1485 1481 1475 1468 1463 1456 1451 1447 1440 1434 1430 1424
1505 1507 1509 1511 1512 1512 1512 1511 1510 1509 1507 1505 1504 1501 1499 1499 1500 1500 1501 1500 1498 1497 1497 1493 1488 1486 1485 1483 1482 1482 1482 1481 1480 1481 1482 1483 1482 1481 1487 1495 1488 1483 1478 1473 1470 1465 1459 1456 1450 1445 1440 1436 1432 1428
1502 1505 1506 1507 1508 1508 1509 1509 1507 1505 1504 1502 1499 1497 1496 1497 1498 1499 1498 1497 1496 1496 1497 1497 1493 1488 1486 1483 1481 1480 1480 1480 1481 1483 1485 1486 1486 1487 1494 1491 1486 1481 1474 1470 1466 1463 1459 1454 1451 1446 1443 1439 1435 1432
1499 1501 1504 1504 1504 1505 1505 1505 1503 1501 1500 1498 1495 1494 1496 1497 1496 1498 1498 1496 1496 1498 1495 1496 1502 1501 1489 1485 1482 1481 1479 1482 1483 1485 1487 1489 1495 1502 1495 1488 1484 1479 1475 1470 1466 1463 1459 1456 1452 1449 1446 1443 1440 1438
1497 1499 1500 1501 1501 1502 1503 1502 1500 1498 1497 1495 1493 1493 1494 1496 1496 1498 1497 1497 1496 1496 1495 1496 1497 1496 1493 1487 1483 1482 1479 1481 1490 1489 1488 1493 1499 1497 1493 1488 1484 1479 1475 1470 1466 1463 1461 1458 1456 1453 1450 1448 1446 1444
1494 1495 1496 1498 1499 1499 1500 1499 1497 1496 1495 1493 1491 1492 1494 1494 1496 1496 1497 1498 1500 1501 1500 1499 1498 1497 1494 1492 1487 1484 1482 1483 1492 1489 1491 1497 1501 1496 1491 1487 1483 1479 1476 1472 1469 1467 1465 1463 1461 1458 1456 1453 1452 1450
1490 1491 1493 1493 1495 1498 1497 1497 1495 1494 1492 1492 1491 1492 1493 1495 1496 1497 1507 1503 1504 1506 1502 1500 1499 1497 1493 1490 1488 1484 1484 1486 1491 1487 1494 1503 1500 1497 1493 1488 1484 1481 1478 1475 1473 1471 1470 1467 1464 1463 1461 1460 1458 1457
1487 1487 1489 1491 1493 1495 1495 1494 1492 1491 1490 1489 1491 1492 1495 1499 1505 1513 1520 1512 1510 1504 1503 1501 1499 1496 1493 1490 1488 1487 1488 1491 1485 1494 1501 1503 1500 1498 1495 1492 1488 1485 1482 1480 1478 1476 1474 1472 1470 1469 1468 1467 1465 1463
1484 1485 1487 1489 1491 1492 1493 1492 1491 1491 1489 1490 1493 1502 1505 1515 1513 1511 1511 1509 1507 1503 1503 1501 1498 1496 1492 1489 1488 1491 1486 1486 1496 1500 1501 1502 1500 1498 1495 1492 1489 1488 1486 1484 1482 1480 1478 1477 1476 1475 1473 1473 1472 1469
1483 1484 1486 1488 1489 1489 1490 1490 1489 1489 1490 1492 1496 1510 1509 1506 1507 1506 1506 1506 1506 1504 1503 1500 1497 1496 1491 1490 1490 1490 1491 1496 1493 1497 1500 1501 1500 1498 1496 1493 1492 1491 1490 1488 1486 1484 1483 1482 1481 1480 1479 1478 1477 1476
1483 1484 1486 1487 1486 1487 1488 1489 1489 1488 1492 1496 1499 1504 1506 1506 1506 1506 1505 1503 1503 1502 1502 1500 1497 1497 1493 1491 1494 1498 1495 1495 1497 1497 1499 1500 1500 1499 1497 1496 1495 1495 1493 1492 1491 1489 1488 1487 1485 1485 1484 1483 1481 1481
1481 1484 1485 1485 1485 1486 1487 1489 1489 1490 1493 1498 1501 1502 1503 1503 1503 1504 1505 1503 1502 1502 1502 1497 1500 1498 1494 1496 1496 1495 1495 1495 1496 1498 1499 1499 1500 1498 1498 1499 1498 1497 1496 1495 1494 1493 1491 1490 1490 1490 1488 1487 1486 1486
1480 1482 1483 1485 1484 1485 1486 1487 1490 1492 1495 1499 1500 1501 1502 1502 1502 1502 1502 1501 1502 1502 1501 1500 1498 1499 1499 1497 1495 1497 1497 1497 1499 1500 1501 1501 1502 1502 1501 1500 1500 1500 1499 1498 1497 1496 1495 1494 1493 1492 1491 1491 1490 1490
1479 1479 1481 1483 1484 1484 1485 1489 1492 1493 1497 1498 1500 1500 1501 1500 1502 1501 1500 1500 1501 1501 1501 1499 1500 1502 1497 1496 1496 1496 1498 1498 1500 1501 1502 1502 1503 1503 1502 1502 1502 1502 1501 1500 1499 1498 1498 1498 1497 1496 1495 1494 1493 1493
1477 1479 1480 1482 1483 1484 1486 1490 1493 1493 1495 1498 1499 1499 1501 1500 1500 1501 1501 1499 1500 1500 1499 1499 1498 1497 1497 1497 1497 1498 1498 1499 1500 1502 1503 1504 1504 1504 1504 1503 1503 1502 1502 1502 1501 1501 1501 1500 1499 1498 1498 1497 1497 1496
1477 1478 1480 1482 1483 1485 1488 1491 1493 1495 1495 1496 1497 1499 1500 1499 1498 1500 1500 1500 1500 1498 1498 1497 1497 1497 1497 1497 1497 1498 1499 1500 1501 1502 1502 1503 1504 1504 1504 1504 1504 1504 1504 1504 1504 1503 1502 1501 1501 1501 1501 1500 1500 1499
1476 1479 1480 1481 1483 1486 1490 1493 1495 1495 1496 1497 1498 1498 1498 1497 1498 1499 1499 1498 1497 1496 1496 1496 1496 1496 1497 1498 1498 1499 1500 1502 1502 1502 1503 1504 1505 1506 1506 1506 1506 1506 1505 1505 1505 1504 1503 1503 1502 1502 1502 1501 1501 1501
1477 1479 1480 1482 1483 1487 1495 1494 1494 1494 1495 1499 1498 1497 1498 1499 1498 1499 1498 1496 1495 1494 1494 1495 1495 1496 1497 1498 1499 1500 1501 1502 1503 1504 1504 1505 1506 1507 1507 1508 1508 1508 1508 1507 1506 1506 1505 1504 1503 1503 1503 1502 1502 1502
1476 1478 1481 1482 1485 1491 1493 1493 1494 1495 1496 1497 1499 1502 1499 1499 1498 1497 1496 1494 1493 1493 1493 1494 1495 1496 1498 1499 1500 1501 1502 1503 1504 1505 1506 1507 1508 1508 1509 1509 1509 1509 1508 1508 1507 1506 1506 1505 1505 1505 1505 1504 1504 1504
1479 1485 1485 1487 1489 1489 1492 1494 1496 1496 1501 1501 1503 1500 1497 1498 1497 1497 1494 1490 1491 1492 1493 1494 1496 1497 1498 1499 1500 1502 1503 1505 1506 1507 1508 1509 1510 1510 1511 1511 1511 1510 1510 1510 1509 1508 1508 1508 1507 1507 1507 1506 1506 1505
1482 1485 1486 1487 1488 1489 1493 1497 1499 1500 1500 1501 1499 1497 1497 1496 1498 1496 1488 1487 1488 1490 1492 1494 1495 1497 1498 1500 1501 1502 1504 1505 1507 1508 1509 1510 1510 1511 1512 1512 1512 1512 1512 1511 1510 1509 1509 1509 1508 1508 1508 1507 1506 1506
1485 1486 1485 1486 1488 1489 1492 1494 1496 1497 1499 1499 1496 1496 1497 1500 1499 1487 1485 1486 1487 1489 1491 1493 1495 1497 1498 1500 1501 1502 1504 1505 1507 1509 1510 1510 1511 1511 1512 1512 1512 1512 1511 1510 1509 1509 1509 1508 1507 1507 1508 1508 1508 1507
1481 1483 1485 1487 1488 1490 1491 1493 1493 1494 1492 1492 1494 1496 1496 1492 1488 1485 1484 1485 1487 1489 1491 1493 1494 1496 1498 1499 1501 1502 1504 1505 1506 1508 1509 1510 1510 1511 1511 1511 1511 1511 1511 1511 1510 1510 1510 1510 1510 1509 1509 1508 1507 1506
1481 1482 1485 1486 1488 1489 1489 1488 1487 1488 1489 1489 1489 1488 1486 1484 1484 1484 1484 1484 1486 1487 1489 1491 1493 1495 1496 1498 1500 1501 1503 1504 1506 1507 1508 1509 1509 1511 1510 1510 1511 1511 1511 1511 1511 1511 1511 1510 1509 1508 1507 1506 1505 1504
1482 1483 1485 1486 1487 1487 1486 1486 1486 1486 1487 1487 1487 1485 1483 1482 1481 1481 1481 1482 1483 1486 1488 1490 1492 1493 1495 1497 1498 1500 1501 1502 1504 1506 1507 1508 1509 1510 1510 1510 1510 1511 1511 1511 1511 1511 1510 1509 1508 1507 1506 1505 1503 1502
1484 1484 1485 1485 1484 1484 1484 1484 1484 1484 1484 1483 1483 1483 1481 1480 1477 1477 1477 1478 1480 1481 1484 1486 1488 1490 1492 1494 1496 1497 1499 1501 1502 1504 1505 1506 1507 1508 1508 1509 1509 1509 1509 1509 1509 1508 1508 1507 1506 1505 1504 1503 1502 1501
1484 1484 1484 1484 1484 1484 1484 1483 1483 1482 1481 1480 1479 1479 1478 1477 1475 1474 1472 1473 1474 1476 1480 1483 1486 1488 1490 1492 1493 1495 1497 1498 1500 1501 1502 1504 1505 1506 1506 1507 1507 1507 1507 1507 1507 1506 1506 1505 1505 1504 1503 1502 1501 1500
1484 1484 1483 1483 1483 1483 1483 1483 1482 1480 1479 1478 1477 1477 1476 1476 1473 1471 1470 1470 1472 1474 1478 1481 1483 1485 1487 1489 1491 1492 1494 1495 1497 1498 1499 1501 1502 1503 1503 1504 1504 1504 1505 1505 1504 1504 1503 1502 1502 1501 1500 1499 1498 1497